TimeCST,TemperatureF,Dew PointF,Humidity,Sea Level PressureIn,VisibilityMPH,Wind Direction,Wind SpeedMPH,Gust SpeedMPH,PrecipitationIn,Events,Conditions,WindDirDegrees,DateUTC
12:15 AM,24.4,22.6,93,29.80,7.0,Calm,Calm,-,N/A,,Scattered Clouds,0,2014-02-14 06:15:00
12:35 AM,24.4,22.6,93,29.79,10.0,East,3.5,-,N/A,,Clear,80,2014-02-14 06:35:00
12:55 AM,24.8,21.9,89,29.79,10.0,ESE,4.6,-,N/A,,Clear,110,2014-02-14 06:55:00
1:15 AM,24.8,22.1,89,29.79,10.0,ESE,3.5,-,N/A,,Clear,120,2014-02-14 07:15:00
1:35 AM,26.8,21.7,81,29.79,10.0,Calm,Calm,-,N/A,,Clear,0,2014-02-14 07:35:00
1:55 AM,30.7,23.2,74,29.79,10.0,SSE,5.8,-,N/A,,Clear,150,2014-02-14 07:55:00
2:15 AM,33.6,23.7,67,29.79,10.0,SSE,6.9,-,N/A,,Clear,160,2014-02-14 08:15:00
2:35 AM,33.6,23.9,68,29.78,10.0,Calm,Calm,-,N/A,,Clear,0,2014-02-14 08:35:00
2:55 AM,33.3,24.1,69,29.78,10.0,SSE,5.8,-,N/A,,Clear,160,2014-02-14 08:55:00
3:15 AM,32.9,24.4,71,29.78,10.0,SSE,5.8,-,N/A,,Clear,160,2014-02-14 09:15:00
3:35 AM,32.0,24.8,75,29.78,10.0,SSE,6.9,-,N/A,,Clear,160,2014-02-14 09:35:00
3:55 AM,31.5,24.6,76,29.79,10.0,South,5.8,-,N/A,,Clear,170,2014-02-14 09:55:00
4:15 AM,33.1,25.5,74,29.80,10.0,South,5.8,-,N/A,,Clear,170,2014-02-14 10:15:00
4:35 AM,32.4,25.5,76,29.80,10.0,South,5.8,-,N/A,,Clear,170,2014-02-14 10:35:00
4:55 AM,32.2,25.7,77,29.81,10.0,South,6.9,-,N/A,,Clear,170,2014-02-14 10:55:00
5:15 AM,25.9,22.3,86,29.82,10.0,Calm,Calm,-,N/A,,Clear,0,2014-02-14 11:15:00
5:35 AM,25.2,23.4,93,29.82,10.0,Calm,Calm,-,N/A,,Clear,0,2014-02-14 11:35:00
5:55 AM,23.2,21.7,94,29.82,10.0,Calm,Calm,-,N/A,,Clear,0,2014-02-14 11:55:00
6:15 AM,23.2,21.9,95,29.82,10.0,Calm,Calm,-,N/A,,Clear,0,2014-02-14 12:15:00
6:35 AM,23.0,22.1,96,29.83,10.0,Calm,Calm,-,N/A,,Clear,0,2014-02-14 12:35:00
6:55 AM,22.1,21.2,96,29.83,7.0,Calm,Calm,-,N/A,,Clear,0,2014-02-14 12:55:00
7:15 AM,23.4,22.3,96,29.83,10.0,Calm,Calm,-,N/A,,Clear,0,2014-02-14 13:15:00
7:35 AM,25.5,23.9,94,29.83,10.0,Calm,Calm,-,N/A,,Clear,0,2014-02-14 13:35:00
7:55 AM,27.1,24.6,90,29.83,10.0,Calm,Calm,-,N/A,,Clear,0,2014-02-14 13:55:00
8:15 AM,30.0,25.7,84,29.83,10.0,Calm,Calm,-,N/A,,Clear,0,2014-02-14 14:15:00
8:35 AM,32.9,27.3,80,29.83,10.0,Calm,Calm,-,N/A,,Clear,0,2014-02-14 14:35:00
8:55 AM,35.8,28.0,73,29.83,10.0,Calm,Calm,-,N/A,,Clear,0,2014-02-14 14:55:00
9:15 AM,39.4,28.8,66,29.83,10.0,Calm,Calm,-,N/A,,Clear,0,2014-02-14 15:15:00
9:35 AM,40.5,28.9,64,29.82,10.0,SSE,4.6,-,N/A,,Clear,160,2014-02-14 15:35:00
9:55 AM,41.2,29.3,63,29.82,10.0,SE,4.6,-,N/A,,Clear,140,2014-02-14 15:55:00
10:15 AM,42.1,29.7,61,29.82,10.0,ESE,5.8,-,N/A,,Clear,120,2014-02-14 16:15:00
10:35 AM,43.2,30.0,60,29.81,10.0,ESE,4.6,-,N/A,,Clear,120,2014-02-14 16:35:00
10:55 AM,44.2,30.2,58,29.82,10.0,SSE,4.6,-,N/A,,Clear,150,2014-02-14 16:55:00
11:15 AM,45.0,30.4,57,29.81,10.0,SSE,5.8,-,N/A,,Clear,160,2014-02-14 17:15:00
11:35 AM,46.2,31.1,56,29.81,10.0,South,6.9,-,N/A,,Clear,180,2014-02-14 17:35:00
11:55 AM,46.6,31.6,56,29.80,10.0,South,9.2,-,N/A,,Clear,180,2014-02-14 17:55:00
12:15 PM,47.5,31.6,54,29.78,10.0,South,8.1,-,N/A,,Clear,170,2014-02-14 18:15:00
12:35 PM,47.5,31.6,54,29.75,10.0,South,11.5,16.1,N/A,,Clear,170,2014-02-14 18:35:00
12:55 PM,48.0,31.6,53,29.73,10.0,South,12.7,20.7,N/A,,Clear,180,2014-02-14 18:55:00
1:15 PM,48.2,31.3,52,29.72,10.0,South,8.1,-,N/A,,Clear,190,2014-02-14 19:15:00
1:35 PM,48.2,31.5,52,29.72,10.0,SSE,9.2,16.1,N/A,,Clear,160,2014-02-14 19:35:00
1:55 PM,48.2,31.1,52,29.70,10.0,SSW,3.5,-,N/A,,Clear,200,2014-02-14 19:55:00
2:15 PM,47.8,31.1,52,29.70,10.0,SSW,5.8,-,N/A,,Clear,200,2014-02-14 20:15:00
2:35 PM,48.2,31.3,52,29.70,10.0,SSW,8.1,-,N/A,,Clear,200,2014-02-14 20:35:00
2:55 PM,47.7,31.3,53,29.70,10.0,South,6.9,-,N/A,,Scattered Clouds,190,2014-02-14 20:55:00
3:15 PM,47.5,30.7,52,29.70,10.0,South,5.8,-,N/A,,Overcast,180,2014-02-14 21:15:00
3:35 PM,47.3,30.7,53,29.70,10.0,South,8.1,-,N/A,,Overcast,170,2014-02-14 21:35:00
3:55 PM,46.9,30.0,52,29.69,10.0,SSW,5.8,-,N/A,,Overcast,200,2014-02-14 21:55:00
4:15 PM,46.4,30.2,53,29.68,10.0,South,8.1,-,N/A,,Overcast,190,2014-02-14 22:15:00
4:35 PM,46.4,30.4,54,29.67,10.0,South,8.1,-,N/A,,Overcast,170,2014-02-14 22:35:00
4:55 PM,45.9,31.5,57,29.66,10.0,SSW,8.1,-,N/A,,Drizzle,200,2014-02-14 22:55:00
5:15 PM,45.9,31.5,57,29.66,10.0,South,9.2,-,N/A,,Overcast,190,2014-02-14 23:15:00
5:35 PM,45.3,32.5,61,29.65,10.0,South,6.9,-,N/A,,Drizzle,190,2014-02-14 23:35:00
5:55 PM,44.2,34.2,68,29.66,7.0,SW,6.9,20.7,N/A,Rain,Rain,220,2014-02-14 23:55:00
6:15 PM,42.4,36.0,78,29.68,5.0,SW,6.9,16.1,0.02,Rain,Rain,230,2014-02-15 00:15:00
6:35 PM,41.2,36.3,83,29.70,2.5,SSW,15.0,21.9,0.09,Rain,Heavy Rain,210,2014-02-15 00:35:00
6:55 PM,40.1,36.3,86,29.69,2.5,SSW,5.8,-,0.16,Rain,Rain,200,2014-02-15 00:55:00
7:15 PM,40.3,36.3,86,29.69,5.0,SSW,4.6,17.3,0.03,Rain,Rain,210,2014-02-15 01:15:00
7:35 PM,40.1,36.5,87,29.68,5.0,South,10.4,20.7,0.07,Rain,Rain,190,2014-02-15 01:35:00
7:55 PM,39.9,36.3,87,29.67,5.0,South,6.9,16.1,0.10,Rain,Rain,170,2014-02-15 01:55:00
8:15 PM,39.9,36.5,88,29.66,4.0,South,3.5,-,0.04,Rain,Rain,180,2014-02-15 02:15:00
8:35 PM,40.1,36.5,87,29.66,5.0,SSW,6.9,-,0.07,Rain,Rain,200,2014-02-15 02:35:00
8:55 PM,41.0,36.5,84,29.65,7.0,SW,10.4,19.6,0.09,Rain,Rain,220,2014-02-15 02:55:00
9:15 PM,40.6,37.0,87,29.65,5.0,SSW,10.4,17.3,0.02,Rain,Rain,200,2014-02-15 03:15:00
9:35 PM,41.0,36.9,85,29.64,10.0,South,4.6,-,0.03,Rain,Light Rain,190,2014-02-15 03:35:00
9:55 PM,41.2,37.4,86,29.63,10.0,SSW,3.5,-,0.04,Rain,Light Rain,210,2014-02-15 03:55:00
10:15 PM,41.4,37.4,86,29.63,7.0,SW,8.1,-,0.01,,Drizzle,230,2014-02-15 04:15:00
10:35 PM,41.2,37.8,88,29.63,7.0,SW,4.6,-,0.01,,Heavy Drizzle,220,2014-02-15 04:35:00
10:55 PM,40.3,38.5,93,29.62,7.0,Calm,Calm,-,0.02,Rain,Light Rain,0,2014-02-15 04:55:00
11:15 PM,39.2,38.8,99,29.63,7.0,Calm,Calm,-,N/A,Rain,Rain,0,2014-02-15 05:15:00
11:35 PM,40.1,37.4,90,29.64,10.0,Calm,Calm,-,0.01,Rain,Rain,0,2014-02-15 05:35:00
11:55 PM,39.9,36.5,88,29.65,10.0,WNW,4.6,-,0.01,Rain,Light Rain,290,2014-02-15 05:55:00